(158285) = 2001 UV62

Discovered at Socorro on 2001-10-17 by LINEAR.

Orbit

Orbit type: Main Belt

Note: WebGL enabled browser required.

epoch2023-09-13.0
epoch JD2460200.5
perihelion date2021-07-24.67073
perihelion JD2459420.17073
argument of perihelion (°)86.76514
ascending node (°)358.28445
inclination (°)1.93588
eccentricity0.1707731
perihelion distance (AU)2.0397174
Tisserand w.r.t. Jupiter3.5
ΔV w.r.t. Earth (km/sec)9.0
semimajor axis (AU)2.4597819
mean anomaly (°)199.35945
mean daily motion (°/day)0.25548120
aphelion distance (AU)2.880
period (years)3.86
P-vector [x]0.08627641
P-vector [y]0.90012116
P-vector [z]0.42701087
Q-vector [x]-0.99627073
Q-vector [y]0.07838492
Q-vector [z]0.03606169
absolute magnitude17.09
phase slope0.15
uncertainty0
referenceMPEC 2023-X132
observations used468
oppositions15
arc length (days)8419
first opposition used1999
last opposition used2022
residual rms (arc-secs)0.72
perturbers coarse indicatorM-v
perturbers precise indicator003Ek
first observation date used1999-03-20.0
last observation date used2022-04-07.0
computer nameMPCLINUX
JD of orbit computation2456731.572649
perihelion JD uncertainty (days)6.8340E-05
argument of perihelion uncertainty (°)1.4242E-04
ascending node uncertainty (°)1.4013E-04
inclination uncertainty (°)3.5692E-06
eccentricity uncertainty 4.8557E-08
perihelion distance uncertainty (AU)1.1511E-07
Minimum Orbit Intersection Distances (in AU)
for orbit epoch: 2460200.5, reference: E2023-XD2
Mercury1.73188
Venus1.32009
Earth1.05571
Mars0.45184
Jupiter2.33579
Saturn7.01216
Uranus15.9835
Neptune27.4375

Observations

477 total observations over interval: 1999 03 20.304850 – 2022 04 07.278252
These data are available for download (format description).

Date (UT) J2000 RA J2000 Dec Magn Location Ref
1999 03 20.304850 12 07 45.060 -00 58 07.55 20.09 V 645 – Apache Point-Sloan Digital Sky Survey MPS 151909
1999 03 20.308322 12 07 44.855 -00 58 06.53 20.94   645 – Apache Point-Sloan Digital Sky Survey MPS 151909
2001 09 20.31837 02 03 37.46 +13 41 06.6 19.2   704 – Lincoln Laboratory ETS, New Mexico MPS 44468
2001 09 20.33256 02 03 37.13 +13 41 06.6 20.0   704 – Lincoln Laboratory ETS, New Mexico MPS 44468
2001 09 20.35066 02 03 36.68 +13 41 06.0 19.8   704 – Lincoln Laboratory ETS, New Mexico MPS 44468
2001 09 20.36485 02 03 36.35 +13 41 06.1 20.3   704 – Lincoln Laboratory ETS, New Mexico MPS 44468
2001 09 20.37904 02 03 35.95 +13 41 04.5 20.4   704 – Lincoln Laboratory ETS, New Mexico MPS 44468
2001 09 20.42285 02 03 35.01 +13 41 03.3 19.7   704 – Lincoln Laboratory ETS, New Mexico MPS 44468
2001 09 20.43692 02 03 34.69 +13 41 02.3 20.1   704 – Lincoln Laboratory ETS, New Mexico MPS 44468
2001 09 20.45099 02 03 34.30 +13 41 01.0 20.1   704 – Lincoln Laboratory ETS, New Mexico MPS 44468
2001 10 11.43551 01 49 44.43 +12 55 59.4 19.2   644 – Palomar Mountain/NEAT MPS 44468
2001 10 11.45646 01 49 43.28 +12 55 55.1 19.6   644 – Palomar Mountain/NEAT MPS 44468
2001 10 11.47747 01 49 42.12 +12 55 50.3 19.5   644 – Palomar Mountain/NEAT MPS 44468
2001 10 17.28049 01 44 20.37 +12 33 33.0 20.6   704 – Lincoln Laboratory ETS, New Mexico MPS 41107
2001 10 17.29647 01 44 19.42 +12 33 29.0 20.3   704 – Lincoln Laboratory ETS, New Mexico MPS 41107
2001 10 17.31281 01 44 18.33 +12 33 24.5 20.0   704 – Lincoln Laboratory ETS, New Mexico MPS 41107
2001 10 19.33192 01 42 22.23 +12 25 01.5 19.1   644 – Palomar Mountain/NEAT MPS 41107
2001 10 19.35299 01 42 20.95 +12 24 56.2 19.3   644 – Palomar Mountain/NEAT MPS 41107
2001 10 19.37437 01 42 19.67 +12 24 50.6 19.1   644 – Palomar Mountain/NEAT MPS 41107
2001 10 21.25949 01 40 30.68 +12 16 47.4 18.9   704 – Lincoln Laboratory ETS, New Mexico MPS 41107
2001 10 21.27934 01 40 29.45 +12 16 42.1 19.3   704 – Lincoln Laboratory ETS, New Mexico MPS 41107
2001 10 21.29698 01 40 28.36 +12 16 37.9 19.0   704 – Lincoln Laboratory ETS, New Mexico MPS 41107
2001 10 21.31341 01 40 27.38 +12 16 33.1 19.0   704 – Lincoln Laboratory ETS, New Mexico MPS 41107
2001 10 21.33003 01 40 26.38 +12 16 28.9 19.1   704 – Lincoln Laboratory ETS, New Mexico MPS 41107
2001 10 22.28654 01 39 30.99 +12 12 19.2 19.1   704 – Lincoln Laboratory ETS, New Mexico MPS 41107
2001 10 22.30485 01 39 29.94 +12 12 14.6 19.7   704 – Lincoln Laboratory ETS, New Mexico MPS 41107
2001 10 22.32170 01 39 28.82 +12 12 10.9 19.6   704 – Lincoln Laboratory ETS, New Mexico MPS 41107
2001 10 25.25516 01 36 39.42 +11 59 17.8 19.9   704 – Lincoln Laboratory ETS, New Mexico MPS 41107
2001 10 25.27200 01 36 38.55 +11 59 12.0 20.5   704 – Lincoln Laboratory ETS, New Mexico MPS 41107
2001 10 25.28870 01 36 37.52 +11 59 08.4 19.9   704 – Lincoln Laboratory ETS, New Mexico MPS 41107
2001 10 25.30531 01 36 36.40 +11 59 02.6 19.7   704 – Lincoln Laboratory ETS, New Mexico MPS 41107
2001 11 12.13544 01 21 42.03 +10 46 13.1 19.8 V 691 – Steward Observatory, Kitt Peak-Spacewatch MPS 41107
2001 11 12.15700 01 21 41.15 +10 46 08.9 19.8 V 691 – Steward Observatory, Kitt Peak-Spacewatch MPS 41107
2001 11 12.17899 01 21 40.23 +10 46 04.7 19.9 V 691 – Steward Observatory, Kitt Peak-Spacewatch MPS 41107
2001 11 21.08299 01 17 02.76 +10 21 50.8 19.2   704 – Lincoln Laboratory ETS, New Mexico MPS 55074
2001 11 21.12796 01 17 01.62 +10 21 46.0 19.9   704 – Lincoln Laboratory ETS, New Mexico MPS 55074
2001 11 21.14263 01 17 01.23 +10 21 43.9 19.6   704 – Lincoln Laboratory ETS, New Mexico MPS 55074
2001 12 18.06332 01 18 51.56 +10 32 21.3 19.6   704 – Lincoln Laboratory ETS, New Mexico MPS 44468
2001 12 18.07860 01 18 51.97 +10 32 23.5 19.9   704 – Lincoln Laboratory ETS, New Mexico MPS 44468
2001 12 18.09370 01 18 52.47 +10 32 26.6 20.3   704 – Lincoln Laboratory ETS, New Mexico MPS 44468
2001 12 18.10881 01 18 52.79 +10 32 29.3 20.0   704 – Lincoln Laboratory ETS, New Mexico MPS 44468
2001 12 18.12391 01 18 53.26 +10 32 30.9 20.3   704 – Lincoln Laboratory ETS, New Mexico MPS 44468
2003 04 08.26050 13 04 46.87 -08 01 17.6 21.3   644 – Palomar Mountain/NEAT MPS 150640
2003 04 08.32286 13 04 43.12 -08 00 59.9 20.4 V 691 – Steward Observatory, Kitt Peak-Spacewatch MPS 150640
2003 04 08.33192 13 04 42.66 -08 00 56.1 20.5   644 – Palomar Mountain/NEAT MPS 150640
2003 04 08.34940 13 04 41.54 -08 00 51.6 20.3 V 691 – Steward Observatory, Kitt Peak-Spacewatch MPS 150640
2003 04 08.37712 13 04 39.91 -08 00 43.0 20.5 V 691 – Steward Observatory, Kitt Peak-Spacewatch MPS 150640
2003 04 08.40161 13 04 38.53 -08 00 34.3 20.5   644 – Palomar Mountain/NEAT MPS 150640
2005 10 24.39040 03 43 10.99 +22 20 26.0 19.5 V 691 – Steward Observatory, Kitt Peak-Spacewatch MPS 149318
2005 10 24.40802 03 43 10.29 +22 20 25.7 19.6 V 691 – Steward Observatory, Kitt Peak-Spacewatch MPS 149318
2005 10 24.42566 03 43 09.61 +22 20 25.2 19.6 V 691 – Steward Observatory, Kitt Peak-Spacewatch MPS 149318
2005 10 28.31455 03 40 32.17 +22 18 05.5 19.4 V 691 – Steward Observatory, Kitt Peak-Spacewatch MPS 149318
2005 10 28.33207 03 40 31.36 +22 18 04.5 19.4 V 691 – Steward Observatory, Kitt Peak-Spacewatch MPS 149318
2005 10 28.34971 03 40 30.53 +22 18 03.7 19.5 V 691 – Steward Observatory, Kitt Peak-Spacewatch MPS 149318
2005 11 01.31363 03 37 23.19 +22 13 42.8 19.1   704 – Lincoln Laboratory ETS, New Mexico MPS 150640
2005 11 01.32569 03 37 22.48 +22 13 41.8 19.2   704 – Lincoln Laboratory ETS, New Mexico MPS 150640
2005 11 01.33782 03 37 21.89 +22 13 40.8 19.3   704 – Lincoln Laboratory ETS, New Mexico MPS 150640
2005 11 01.34985 03 37 21.32 +22 13 40.1 19.9   704 – Lincoln Laboratory ETS, New Mexico MPS 150640
2005 11 01.36189 03 37 20.55 +22 13 38.9 19.3   704 – Lincoln Laboratory ETS, New Mexico MPS 150640
2005 11 01.36304 03 37 20.56 +22 13 38.9 19.4 V 691 – Steward Observatory, Kitt Peak-Spacewatch MPS 150640
2005 11 01.38060 03 37 19.61 +22 13 37.4 19.4 V 691 – Steward Observatory, Kitt Peak-Spacewatch MPS 150640
2005 11 01.39816 03 37 18.70 +22 13 35.8 19.4 V 691 – Steward Observatory, Kitt Peak-Spacewatch MPS 150640
2005 11 04.32889 03 34 45.27 +22 09 07.6 19.3   704 – Lincoln Laboratory ETS, New Mexico MPS 150640
2005 11 04.34086 03 34 44.55 +22 09 04.8 19.3   704 – Lincoln Laboratory ETS, New Mexico MPS 150640
2005 11 04.35289 03 34 43.88 +22 09 03.9 19.7   704 – Lincoln Laboratory ETS, New Mexico MPS 150640
2005 11 04.36486 03 34 43.16 +22 09 01.9 19.3   704 – Lincoln Laboratory ETS, New Mexico MPS 150640
2005 11 04.37682 03 34 42.52 +22 09 01.2 19.7   704 – Lincoln Laboratory ETS, New Mexico MPS 150640
2005 11 07.26355 03 32 01.61 +22 03 37.1 19.2   704 – Lincoln Laboratory ETS, New Mexico MPS 149318
2005 11 07.27582 03 32 00.87 +22 03 35.1 19.5   704 – Lincoln Laboratory ETS, New Mexico MPS 149318
2005 11 07.28803 03 32 00.17 +22 03 34.0 19.6   704 – Lincoln Laboratory ETS, New Mexico MPS 149318
2005 11 07.30024 03 31 59.41 +22 03 32.3 19.4   704 – Lincoln Laboratory ETS, New Mexico MPS 149318
2005 11 07.31246 03 31 58.70 +22 03 30.8 19.3   704 – Lincoln Laboratory ETS, New Mexico MPS 149318
2005 11 12.26130 03 27 06.23 +21 52 07.7 19.2 V 691 – Steward Observatory, Kitt Peak-Spacewatch MPS 149318
2005 11 12.27887 03 27 05.11 +21 52 05.1 19.2 V 691 – Steward Observatory, Kitt Peak-Spacewatch MPS 149318
2005 11 12.29650 03 27 04.00 +21 52 02.5 19.1 V 691 – Steward Observatory, Kitt Peak-Spacewatch MPS 149318
2005 11 20.39795 03 18 49.03 +21 28 54.9 18.7 R 699 – Lowell Observatory-LONEOS MPS 150640
2005 11 20.41438 03 18 48.21 +21 28 51.1   699 – Lowell Observatory-LONEOS MPS 150640
2005 11 20.43082 03 18 47.26 +21 28 47.3   699 – Lowell Observatory-LONEOS MPS 150640
2005 11 20.44724 03 18 46.09 +21 28 45.6   699 – Lowell Observatory-LONEOS MPS 150640
2005 11 25.14263 03 14 09.98 +21 13 46.2   691 – Steward Observatory, Kitt Peak-Spacewatch MPS 151909
2005 11 25.15794 03 14 09.06 +21 13 43.4   691 – Steward Observatory, Kitt Peak-Spacewatch MPS 151909
2005 11 25.17343 03 14 08.14 +21 13 40.5   691 – Steward Observatory, Kitt Peak-Spacewatch MPS 151909
